Regional Weather Roundup
Issued by NWS Albany, NY

Current Version | Previous Version | Text Only | Print | Product List | Glossary On
Versions: 1 2 3 4 5 6 7 8 9 10 11 12 13 14 15 16 17 18 19 20 21 22 23 24 25 26 27 28 29 30 31 32 33 34 35 36 37 38 39 40 41 42 43 44 45 46 47 48 49 50
000 ASUS41 KALY 270210 RWRALY NEW YORK STATE HOURLY WEATHER ROUNDUP NATIONAL WEATHER SERVICE ALBANY NY 1000 PM EDT WED JUL 26 2017 NOTE: "FAIR" INDICATES FEW OR NO CLOUDS BELOW 12,000 FEET WITH NO SIGNIFICANT WEATHER AND/OR NO OBSTRUCTIONS TO VISIBILITY. NYZ032-033-038>043-046>054-057>066-NYZ062>081-082-084-270300- EAST CITY SKY/WX TMP DP RH WIND PRES REMARKS ALBANY CLOUDY 70 60 70 S5 30.10S GLENS FALLS CLOUDY 66 62 87 CALM 30.08F POUGHKEEPSIE PTCLDY 66 59 78 CALM 30.12R NEWBURGH PTCLDY 68 59 73 VRB5 30.14S MONTGOMERY PTCLDY 63 60 90 SW3 30.13R WHITE PLAINS PTCLDY 63 55 75 SE3 30.15R ISLIP MOCLDY 67 58 72 S5 30.15S NEW YORK CITY MOCLDY 70 58 65 S10 30.14S CENTRAL PARK CLEAR 68 56 65 S5 30.17S $$ NYZ005>009-017-018-044>046-055-056-270300- CENTRAL CITY SKY/WX TMP DP RH WIND PRES REMARKS FULTON CLOUDY 68 62 81 CALM 30.05F SYRACUSE CLOUDY 67 62 84 E3 30.05F ROME CLOUDY 67 63 87 E7 30.07F ELMIRA CLOUDY 67 63 87 CALM 30.09S BINGHAMTON MOCLDY 65 59 81 SW7 30.13S $$ NYZ026>034-041>043-087-270300- NORTH CITY SKY/WX TMP DP RH WIND PRES REMARKS WATERTOWN CLOUDY 67 63 87 VRB3 30.03F FORT DRUM NOT AVBL OGDENSBURG FAIR 65 63 90 CALM 30.01F MASSENA CLOUDY 66 64 93 S5 30.02F SARANAC LAKE CLOUDY 60 60 100 SW7 30.07F PLATTSBURGH CLOUDY 66 62 87 CALM 30.03F $$ NYZ001>004-010>016-019>021-085-270300- WEST CITY SKY/WX TMP DP RH WIND PRES REMARKS NIAGARA FALLS LGT RAIN 71 59 65 S9 30.02F BUFFALO CLOUDY 70 61 73 S12 30.04F DUNKIRK CLOUDY 67 64 90 S6 30.06F JAMESTOWN CLOUDY 64 57 77 CALM 30.11F WELLSVILLE MOCLDY 68 58 70 SW6 30.15R ROCHESTER CLOUDY 68 62 81 S6 30.06F PENN YAN CLOUDY 70 60 70 S6 30.08S $$ KEY WCI = WIND CHILL INDEX VSB = VISIBILITY HX = HEAT INDEX $$

USA.gov is the U.S. government's official web portal to all federal, state and local government web resources and services.